GFSMA_2pvu_pres_171.txt.gz
Presure
182 162 174 176 172 166 174 170 176 159 164 166 182 170 160 161 183 185 163 187 161 174 168 165 191 159 170 164 151 190 177 195 219 205 207 202 221 217 184 202 184 185 214
192 158 112 192 171 171 168 161 164 171 185 178 174 178 182 168 168 184 185 165 170 159 173 168 172 200 216 188 144 170 162 189 232 223 220 208 197 218 205 207 199 230 199
196 191 192 202 207 171 170 173 179 177 170 184 163 189 188 174 174 170 169 196 166 187 193 187 162 174 179 186 188 171 171 193 247 222 217 212 204 211 215 199 204 210 199
191 190 191 194 202 203 215 202 201 200 211 203 208 185 188 211 207 204 194 166 204 191 188 176 174 188 181 167 181 151 192 176 183 242 209 198 207 194 185 215 195 192 235
184 182 184 184 186 216 202 189 195 197 196 199 202 203 200 217 213 185 167 162 167 182 175 194 188 181 168 162 181 190 187 178 165 172 238 224 204 201 194 197 206 196 186
186 199 201 199 191 174 172 188 177 177 182 184 189 186 188 188 192 195 215 210 218 173 197 175 199 164 163 179 175 184 185 193 175 170 168 226 213 201 196 183 194 205 195
195 209 228 213 214 171 180 180 177 174 166 162 169 176 174 177 183 184 188 183 182 196 200 185 174 193 198 191 194 184 185 197 160 168 180 158 179 209 207 209 219 208 204
213 217 179 190 196 197 182 191 197 197 230 225 177 166 170 162 168 171 184 184 164 198 138 199 184 194 191 201 174 158 167 189 182 158 157 77 156 174 204 202 201 222 226
207 183 182 177 180 184 209 188 190 187 230 228 203 287 177 179 189 200 163 162 223 206 181 102 208 193 178 193 194 195 193 198 183 185 166 131 172 158 181 187 197 193 205
188 183 169 199 185 193 160 221 285 289 187 294 191 270 190 258 156 156 179 236 190 181 185 188 166 182 190 174 179 195 183 141 195 176 182 178 175 150 157 191 177 208 186
217 267 241 161 184 181 282 281 170 278 216 284 283 288 265 276 283 281 215 250 178 205 220 203 180 179 181 190 184 182 176 182 192 199 177 172 173 170 170 168 182 159 173
255 169 162 171 229 282 275 278 299 307 339 342 334 313 353 312 282 283 282 269 259 255 171 210 169 175 138 169 191 185 193 187 168 189 172 161 136 152 182 223 167 157 182
265 268 229 247 278 274 294 318 316 308 313 305 304 305 313 322 332 348 361 340 280 258 257 244 255 253 177 206 169 193 183 124 113 163 182 174 155 179 172 169 168 192 178
269 266 271 274 268 311 311 302 305 298 293 291 292 299 332 338 392 412 428 425 368 346 263 254 249 234 214 219 204 187 179 178 139 174 174 171 195 185 182 183 126 155 200
266 272 270 306 308 274 290 296 291 286 205 178 146 122 309 360 352 352 377 391 150 451 354 289 270 247 223 197 198 172 184 202 181 146 165 181 178 185 187 131 172 188 208
264 285 311 304 294 289 293 289 283 282 277 277 291 305 295 342 136 253 144 366 384 408 452 345 332 275 250 170 202 181 200 184 185 194 193 199 162 167 164 154 189 160 178
304 307 307 299 294 290 283 280 277 275 275 285 322 296 287 333 322 329 329 332 345 372 413 354 342 321 279 208 207 179 199 198 186 180 165 160 130 177 188 181 157 166 189
307 303 294 289 281 276 276 275 280 287 303 307 307 282 280 324 320 317 315 324 327 341 373 408 348 332 309 281 216 215 194 170 150 162 200 167 166 200 195 202 175 188 218
302 288 278 275 276 283 294 308 330 325 314 298 284 295 319 314 311 308 318 307 307 325 339 374 398 326 334 281 243 224 174 209 157 212 160 199 190 189 185 202 201 202 152
284 272 272 290 364 413 386 371 387 369 351 346 340 339 328 334 310 311 311 314 313 322 334 354 357 412 330 297 280 218 201 211 178 158 187 186 202 186 157 168 161 160 179
269 282 285 336 312 348 416 417 397 377 355 344 339 335 332 328 307 312 309 306 304 315 331 339 208 388 348 342 297 238 223 196 210 192 189 208 200 176 151 142 180 124 152
289 276 318 333 334 343 337 345 384 395 369 348 336 327 324 314 317 301 306 309 309 305 329 369 359 383 415 349 353 237 217 224 198 194 210 203 150 192 147 198 206 134 204
276 310 312 300 295 306 307 316 319 327 382 378 353 332 328 339 317 303 307 296 304 313 344 344 341 347 376 439 346 333 255 214 205 209 178 172 131 201 140 210 158 197 192
317 298 286 282 279 279 292 295 299 306 312 327 388 361 344 334 313 304 304 293 303 337 322 327 328 341 370 396 340 352 304 228 207 180 207 185 151 195 161 194 181 193 164
302 289 288 284 283 282 270 284 292 294 293 304 321 358 361 334 315 305 299 297 301 332 322 320 327 374 410 414 423 344 340 239 194 198 155 167 144 198 195 200 201 148 153
294 287 283 281 281 289 283 279 281 282 291 286 303 324 372 371 348 301 302 293 320 327 314 306 341 382 424 437 343 334 329 339 163 217 217 210 211 204 132 151 157 168 180

GFSMA_2pvu_pres_174.txt.gz
Presure
196 203 207 213 212 198 184 200 197 162 179 184 189 171 179 159 167 165 172 183 183 194 187 192 184 185 171 173 165 173 229 184 173 180 200 220 210 198 227 194 186 190 215
198 184 193 194 186 195 205 203 187 188 204 193 176 192 166 173 172 172 152 167 166 171 167 177 194 194 193 178 199 189 181 213 192 152 181 193 228 221 202 222 195 192 188
196 174 178 190 192 213 188 193 200 201 192 195 214 222 180 173 176 173 183 182 173 168 177 157 171 180 164 189 171 184 188 169 170 165 193 190 232 205 223 204 218 203 188
174 205 182 188 141 185 183 180 185 195 195 192 193 213 233 228 190 181 174 189 191 171 170 171 171 170 169 160 179 199 181 194 204 181 194 188 194 229 223 211 200 215 202
180 176 180 176 212 199 191 205 184 199 186 198 194 193 197 213 194 208 211 213 204 202 197 184 210 177 171 159 189 194 184 199 174 162 207 194 165 186 195 216 212 225 205
180 178 168 186 173 176 182 182 190 192 206 195 208 206 182 179 177 203 180 187 200 207 199 190 173 176 177 161 169 174 187 176 177 172 183 181 195 173 188 222 213 205 193
193 209 209 212 219 219 235 183 184 183 183 184 184 181 198 189 230 181 192 178 183 176 191 185 194 201 190 175 174 176 191 193 199 192 166 188 200 194 161 152 224 215 204
193 203 195 215 224 234 241 250 225 263 214 261 170 170 166 180 182 188 186 213 182 213 178 180 184 188 202 194 186 190 198 190 192 205 192 199 204 201 185 91 157 213 213
174 179 187 223 226 234 249 256 279 284 207 251 234 161 193 187 181 181 188 231 204 241 162 164 170 183 157 173 185 159 220 169 168 199 194 193 192 178 148 167 164 185 210
166 219 218 222 233 245 283 276 283 282 283 199 154 167 186 171 159 270 223 293 288 276 201 197 160 184 163 180 152 157 164 162 193 165 196 184 192 159 184 190 144 167 179
218 217 218 243 239 276 280 278 152 281 202 208 162 171 285 290 301 299 165 155 295 294 294 283 279 235 176 153 157 153 95 181 179 192 188 213 191 192 162 178 179 159 164
224 230 231 250 260 282 267 278 274 270 277 164 216 320 316 318 326 337 255 353 327 291 294 289 158 279 175 165 169 191 191 170 185 173 178 170 198 205 164 156 185 180 173
218 235 234 241 281 269 273 272 277 272 326 320 313 309 304 311 310 313 321 326 332 254 323 297 290 291 283 170 186 172 179 175 180 184 186 204 205 204 208 195 186 159 159
229 235 257 278 271 268 270 267 322 319 317 310 119 307 308 305 300 301 308 315 322 351 355 353 295 299 289 282 181 236 172 169 201 185 180 126 170 165 202 200 139 166 187
239 269 265 270 265 261 261 318 310 300 295 292 291 291 291 290 288 291 296 308 364 164 382 374 411 354 291 289 280 250 176 192 189 176 137 183 171 171 116 171 187 137 189
235 253 244 273 256 264 313 304 293 288 282 282 285 289 290 292 292 298 301 325 340 322 355 355 376 401 353 294 283 281 235 181 181 177 177 170 152 169 126 199 197 140 189
255 239 252 246 296 309 295 291 279 284 298 305 358 398 384 359 346 335 325 307 315 308 339 341 353 372 394 351 338 280 279 237 191 185 173 190 199 189 164 149 197 147 184
244 249 260 292 306 294 286 276 296 282 347 322 320 431 345 326 372 359 346 330 296 304 346 334 329 342 367 392 345 298 269 216 222 187 204 188 148 184 147 168 172 159 137
252 244 266 307 296 285 279 294 287 334 318 326 346 425 414 387 365 353 342 338 335 334 330 333 317 190 344 372 397 354 295 282 232 207 202 182 201 189 171 183 177 184 193
258 267 310 293 286 285 280 296 308 297 294 295 312 322 364 403 378 354 345 338 334 330 316 324 326 313 327 337 369 403 364 286 255 216 213 204 200 202 184 178 155 174 207
268 310 294 281 292 276 327 309 296 294 291 286 290 302 307 326 365 380 353 341 335 339 323 323 318 321 319 329 356 290 411 374 256 233 205 191 204 204 180 126 147 175 167
307 293 277 293 276 313 318 300 299 295 293 296 278 290 295 300 313 345 381 354 339 332 331 316 318 313 311 319 338 360 381 337 345 247 204 212 197 212 162 125 201 136 123
292 273 289 275 289 314 312 305 300 299 294 295 300 284 289 290 297 308 340 378 353 339 332 316 312 306 314 320 346 354 373 271 357 252 218 205 204 151 136 187 195 124 200
271 286 271 293 303 315 307 307 303 303 301 299 296 293 287 297 289 301 313 359 369 354 346 312 309 296 305 345 350 356 371 411 344 294 229 211 201 220 176 210 173 169 182
275 272 261 292 314 314 307 304 304 309 312 313 327 341 355 314 304 294 307 320 376 351 338 314 307 306 308 331 327 341 346 385 458 342 254 228 224 209 205 206 205 193 142
275 258 289 287 288 289 303 305 306 303 306 312 324 342 359 357 298 310 303 318 365 363 334 318 306 302 324 319 329 341 357 371 434 336 269 239 226 191 165 194 164 181 158

GFSMA_2pvu_pres_180.txt.gz
Presure
183 184 195 178 166 194 178 173 171 193 183 163 179 186 183 189 167 160 197 193 197 196 184 178 177 168 177 175 180 174 183 180 172 168 195 199 165 162 183 186 232 208 213
191 189 186 178 175 203 169 176 172 179 201 192 182 190 197 184 197 183 179 184 196 207 196 192 179 177 181 181 175 161 165 177 192 159 164 158 180 209 200 178 194 198 202
163 159 118 188 127 204 183 193 184 171 213 199 137 144 185 188 190 193 205 237 194 204 204 202 196 183 182 175 171 173 183 172 193 170 174 188 157 197 203 209 179 197 193
119 189 185 186 192 197 177 200 139 186 205 197 173 169 181 218 222 239 192 185 201 209 195 203 204 194 193 180 176 182 183 184 167 160 153 181 178 191 204 164 193 161 191
167 187 174 187 191 192 183 208 211 216 207 193 211 209 217 221 184 245 183 277 201 191 233 196 190 180 200 194 177 174 174 144 162 146 187 185 192 176 172 209 183 188 187
182 179 172 194 195 194 187 195 199 207 210 207 213 215 219 227 250 254 276 193 196 192 194 200 300 196 184 205 194 181 173 167 158 162 175 168 163 200 176 190 207 170 188
170 188 183 179 175 194 190 194 202 203 206 213 204 225 225 248 288 288 182 183 188 181 190 304 288 210 188 197 206 214 201 181 170 161 174 166 169 144 205 158 199 152 164
191 179 181 181 194 189 205 202 198 204 212 217 218 217 225 245 283 271 276 266 270 273 303 307 310 307 304 212 189 197 205 205 198 169 172 189 165 158 150 175 166 176 155
174 176 181 193 187 193 191 209 204 210 217 232 218 231 267 281 273 270 266 272 290 282 282 291 301 310 307 283 220 201 191 217 211 188 176 174 147 180 161 164 159 174 157
181 190 187 206 205 200 191 204 205 212 213 220 239 248 278 286 273 276 283 273 355 349 356 333 285 300 309 294 291 235 196 169 209 203 197 180 188 155 180 173 166 172 189
175 184 185 196 194 204 202 201 212 222 213 240 276 267 278 269 288 297 320 337 315 328 324 339 349 302 303 309 306 292 172 178 171 174 211 182 204 187 189 173 185 184 146
193 183 201 197 202 202 208 208 216 224 235 227 265 271 276 278 289 319 340 322 299 292 315 317 326 335 341 303 308 308 208 201 241 191 172 216 202 182 188 163 172 176 165
203 201 203 200 194 204 215 210 221 233 243 266 255 281 275 286 315 323 319 308 296 289 282 304 316 326 328 332 307 199 169 250 183 224 197 172 173 196 189 191 172 176 213
195 200 199 199 205 206 203 217 218 235 244 272 277 277 286 310 314 302 313 318 308 309 309 289 292 309 323 329 336 340 308 287 270 184 243 176 175 158 168 183 178 196 182
197 199 204 198 208 215 224 230 250 261 276 279 280 285 282 310 298 301 310 356 359 333 321 347 312 299 305 318 332 336 243 151 196 221 175 192 201 200 208 169 165 147 192
193 198 203 211 209 219 228 235 234 273 285 280 277 275 312 296 300 290 342 340 337 326 312 306 387 491 123 307 316 329 328 342 153 188 180 179 180 199 187 181 154 180 198
205 202 210 228 216 229 237 237 280 284 277 280 281 310 296 293 291 280 312 334 334 331 312 307 315 380 463 354 309 317 328 329 336 336 193 179 170 182 209 189 175 181 167
206 223 216 221 237 239 259 278 272 270 279 280 270 301 284 296 285 288 306 329 330 333 319 304 307 322 368 155 420 315 317 330 329 337 345 321 183 216 173 177 185 182 185
220 219 234 226 271 261 274 277 276 282 283 281 302 286 299 285 292 302 304 304 329 324 333 325 317 310 332 359 395 403 320 318 330 329 339 321 324 217 221 171 207 200 154
217 221 249 259 267 278 275 267 286 279 289 299 286 282 290 276 293 301 303 305 313 313 320 333 339 344 314 340 361 416 382 374 321 330 335 346 335 263 186 189 188 193 158
250 259 263 273 270 276 271 284 279 303 292 285 278 290 279 282 293 292 291 292 300 306 320 328 335 337 355 317 339 381 418 365 363 344 328 341 357 325 224 208 184 183 199
258 287 272 277 276 281 280 281 297 289 282 276 291 278 280 290 290 294 297 304 304 310 324 337 349 370 397 372 321 350 425 373 354 351 350 356 364 367 238 212 202 184 179
272 271 273 278 286 286 292 286 283 278 281 290 274 301 289 292 296 303 320 314 339 359 370 379 381 395 422 409 340 331 376 416 358 344 344 341 370 389 328 227 214 183 206
276 269 287 287 279 291 284 280 277 284 279 298 295 300 321 324 326 321 331 357 366 371 371 375 415 427 432 440 403 324 354 425 369 354 335 329 379 385 371 259 218 203 198
270 279 275 290 282 280 273 280 278 299 292 302 318 320 326 342 353 360 363 368 372 370 401 408 405 403 413 422 434 330 340 410 383 364 350 354 362 372 393 276 232 221 229
273 270 291 279 273 272 276 293 284 278 277 283 313 332 357 359 359 362 367 368 375 414 396 379 372 378 392 403 420 334 332 372 395 371 362 363 357 361 376 396 261 205 216

GFSMA_2pvu_pres_186.txt.gz
Presure
182 185 179 165 174 184 166 173 179 161 184 202 145 161 204 206 120 191 187 180 196 188 201 225 226 227 229 199 212 183 211 195 189 187 197 185 169 178 203 186 178 173 130
180 171 171 171 176 168 169 156 160 181 172 162 177 159 182 156 159 187 210 196 207 217 185 191 221 183 220 191 182 198 216 193 171 195 206 177 209 198 200 161 182 167 191
181 172 170 164 187 171 172 181 168 162 174 191 189 184 171 162 196 199 211 177 208 206 219 214 212 226 231 231 237 184 201 184 182 176 183 198 199 203 198 168 187 164 174
175 171 174 169 161 172 168 170 169 153 189 200 204 204 200 203 206 208 217 205 210 205 211 199 217 197 235 240 227 198 201 184 205 198 184 191 193 214 170 166 166 167 174
170 172 170 167 175 160 175 155 154 177 180 188 206 204 201 204 211 205 207 202 192 207 217 203 227 233 236 234 248 285 241 198 210 197 192 184 188 186 200 174 187 182 185
164 166 164 175 166 158 167 169 164 173 182 187 191 207 212 209 209 201 197 204 208 190 220 225 213 236 238 254 277 288 294 307 198 237 195 185 194 179 187 184 187 181 181
176 160 179 163 166 158 157 173 177 188 188 205 199 210 209 211 206 204 212 213 216 213 216 234 229 234 241 255 293 300 291 307 300 199 202 196 192 192 204 201 185 188 173
165 169 167 161 174 161 172 188 181 180 180 193 201 206 204 210 206 213 221 218 221 225 230 235 236 277 282 299 296 302 298 307 298 267 187 198 193 198 192 181 185 193 198
167 180 171 170 166 167 186 184 177 187 177 196 201 205 204 200 205 211 212 215 218 228 246 279 290 286 301 309 314 304 308 296 293 281 235 191 207 183 190 201 184 188 187
181 159 180 165 172 182 169 184 187 178 196 199 199 206 203 204 211 211 221 217 240 256 296 281 293 301 309 310 312 312 307 303 293 284 288 222 183 203 199 187 196 189 185
176 163 176 170 167 174 188 190 179 191 195 202 196 200 219 223 236 229 252 249 255 263 290 305 298 318 313 306 339 341 341 354 349 310 291 284 220 201 196 176 185 190 190
173 187 185 184 170 186 169 182 194 185 197 203 209 212 207 233 254 247 252 269 247 283 242 296 316 305 299 319 314 312 317 324 336 345 311 292 260 209 199 198 196 183 193
174 181 177 172 167 183 176 181 180 187 184 193 239 236 239 262 254 257 278 299 294 283 275 310 299 311 314 312 304 299 306 313 320 324 338 339 292 244 175 217 191 188 185
177 188 178 169 186 171 180 182 193 177 207 217 236 243 246 255 256 301 272 291 293 304 299 287 314 312 296 297 297 304 305 301 312 320 321 337 307 285 241 172 175 185 175
173 181 177 180 162 190 195 184 202 216 189 226 243 256 262 263 312 299 296 294 314 298 304 299 296 293 290 283 301 299 301 296 351 312 321 324 337 292 280 217 183 201 186
181 168 184 172 180 193 193 180 200 218 221 260 261 262 267 308 271 287 297 300 329 310 297 284 276 278 224 289 292 194 308 311 346 338 330 325 327 349 288 318 192 184 197
175 183 188 178 185 184 179 220 226 245 262 269 264 289 293 288 286 295 295 311 297 283 283 307 307 291 291 216 283 285 299 317 315 353 331 332 325 337 289 302 287 216 207
189 183 187 180 173 192 195 210 257 259 251 285 302 292 283 282 291 306 301 293 280 314 300 292 283 295 306 293 312 293 290 300 316 318 356 340 338 328 343 291 311 244 217
174 194 186 203 223 200 223 261 269 254 296 308 293 278 281 280 292 295 287 283 288 281 294 300 301 311 344 333 334 346 345 296 307 312 328 350 358 336 341 288 301 267 222
180 144 169 181 224 230 267 276 283 281 284 270 279 274 285 282 288 288 292 277 284 281 286 293 319 344 355 383 405 405 366 352 352 314 314 331 355 369 340 355 301 314 237
175 203 199 237 255 259 261 231 265 264 270 288 276 285 279 289 291 280 278 284 280 278 292 325 336 356 399 401 394 394 400 405 397 370 325 324 166 363 375 344 354 308 241
157 237 238 255 276 267 293 263 266 273 265 286 268 268 286 289 274 284 274 277 280 278 329 342 355 397 394 389 390 391 398 406 412 410 417 375 335 337 367 385 350 325 313
247 257 268 272 275 236 245 258 250 262 287 277 277 281 282 272 281 273 271 272 278 307 337 353 386 389 389 385 386 399 402 405 412 401 416 433 432 348 351 378 362 402 314
257 275 250 258 255 265 248 250 268 295 277 266 276 276 273 273 275 271 269 273 283 331 345 384 382 382 385 390 412 413 404 402 398 402 414 445 440 440 362 366 394 374 395
234 256 262 254 261 252 257 248 290 279 277 270 275 274 269 276 274 266 270 277 320 342 377 381 377 379 387 407 398 391 382 377 369 370 384 427 443 457 446 442 376 378 403
254 253 253 264 247 260 246 291 293 271 268 275 271 266 271 270 268 269 267 300 336 365 385 377 371 375 395 383 379 380 372 359 355 347 360 392 409 434 456 440 435 400 386

GFSMA_2pvu_pres_189.txt.gz
Presure
176 167 173 184 174 194 179 176 165 183 169 172 185 168 177 167 188 186 212 162 214 131 169 180 183 172 224 198 239 230 236 190 208 213 194 206 196 194 182 186 189 175 190
176 176 190 183 190 183 179 182 177 177 169 183 168 172 175 181 185 184 164 196 215 184 213 169 187 210 217 184 210 218 214 231 201 222 238 185 201 195 196 179 179 193 181
171 177 181 180 179 169 175 170 181 184 160 151 154 154 168 156 154 176 183 193 216 228 212 215 219 225 209 225 127 222 229 223 222 203 186 213 198 200 191 199 202 187 200
176 174 188 174 173 173 169 173 164 169 179 160 156 161 180 184 197 182 184 214 216 212 217 216 218 218 222 223 227 231 233 226 214 243 188 203 179 196 165 186 197 200 191
172 172 171 177 182 175 163 178 175 162 164 166 159 175 177 181 182 182 195 208 198 210 214 215 218 216 219 226 220 228 232 232 235 245 248 227 206 188 184 196 196 205 190
162 151 181 173 167 177 171 176 158 180 166 156 191 176 184 187 184 174 181 196 195 194 202 206 217 225 225 243 241 247 243 242 245 267 246 285 251 197 192 199 205 189 184
170 181 173 171 163 170 166 164 181 152 175 186 159 178 171 188 170 183 195 196 191 215 207 228 228 242 253 259 252 256 301 305 301 318 296 292 263 254 203 199 210 211 188
140 177 171 165 165 169 179 175 172 180 169 184 169 189 178 179 189 191 192 203 193 208 232 221 250 255 260 259 276 285 276 279 309 303 309 303 302 310 217 197 210 196 214
175 169 170 164 168 170 178 170 188 179 191 180 184 176 184 179 193 183 193 193 213 238 238 268 268 271 275 279 335 311 309 307 324 328 324 328 328 280 247 206 197 204 204
172 176 163 164 178 180 167 178 176 185 180 182 182 183 179 179 178 191 209 192 233 250 258 265 269 277 260 324 313 314 302 323 328 328 326 311 318 316 299 215 203 194 210
172 172 172 176 180 171 165 179 186 182 166 183 179 192 186 181 194 192 208 207 257 253 277 271 273 327 314 320 313 335 324 320 313 312 311 302 317 315 310 241 213 198 198
171 170 176 181 173 166 175 183 177 168 173 190 185 189 183 183 184 210 231 247 260 266 268 287 309 308 317 341 332 327 327 332 329 329 325 331 338 309 313 301 216 213 199
173 164 178 174 170 180 179 183 177 183 192 182 189 179 183 189 237 207 257 265 263 271 230 269 305 313 323 228 309 311 313 317 316 318 315 315 320 327 311 297 234 214 204
169 175 178 173 177 182 182 186 185 188 175 193 180 187 193 195 195 273 266 280 308 295 286 294 123 308 302 295 289 274 293 298 306 304 303 309 315 315 334 296 231 216 213
177 173 173 175 183 185 171 194 185 172 186 172 182 184 193 242 266 218 283 313 308 293 305 289 313 270 285 283 291 289 280 299 298 297 297 308 311 313 324 335 297 233 210
175 181 185 181 181 158 192 166 178 188 174 179 198 218 202 261 294 299 274 302 308 290 287 305 294 293 286 278 273 304 282 281 310 306 302 306 310 309 312 327 332 270 225
184 151 171 182 176 190 179 171 184 164 183 194 193 247 268 268 267 270 279 276 297 289 299 301 286 290 287 292 278 284 151 315 281 292 322 306 302 311 309 316 326 321 233
187 189 192 190 179 152 172 187 152 198 195 227 245 268 270 286 266 264 274 253 293 292 298 284 294 281 297 290 290 286 322 353 359 285 298 353 298 312 311 351 319 325 310
187 174 170 191 175 180 158 147 182 192 198 240 256 260 262 268 266 267 270 289 295 291 291 276 285 291 278 286 290 318 360 386 399 415 302 311 317 318 321 331 347 323 333
180 186 186 174 168 181 162 191 194 225 245 261 245 301 285 263 260 252 266 297 286 290 280 288 284 285 280 287 296 202 385 420 417 421 426 434 413 360 333 328 355 328 326
181 172 156 194 183 187 198 178 188 264 264 248 280 270 270 256 266 252 292 293 291 289 280 282 276 294 286 292 316 358 414 414 406 405 407 415 426 416 379 346 336 381 324
187 192 178 182 195 196 193 267 252 268 272 279 265 269 254 256 262 256 291 291 292 282 276 279 277 287 294 289 124 413 414 407 397 387 405 409 416 432 436 343 352 347 363
188 184 167 199 231 236 262 270 259 283 278 266 279 268 253 259 256 286 303 293 282 275 282 275 277 276 281 324 386 258 407 406 406 410 414 418 412 426 437 457 376 354 366
215 200 231 216 249 266 263 263 260 278 265 266 257 259 263 253 289 269 292 280 275 285 275 276 275 280 316 342 415 412 409 406 416 385 387 402 395 407 420 438 454 376 354
222 264 264 260 269 246 258 252 257 273 262 254 271 263 274 291 277 293 279 275 279 275 282 269 285 295 327 411 414 409 366 419 395 370 373 388 385 386 396 416 444 466 363
241 261 268 262 279 249 257 269 258 269 260 262 267 277 288 274 292 279 272 276 273 274 266 284 286 313 412 413 404 405 409 403 382 356 361 370 369 379 374 387 414 449 474